QPF
0.04 0.04 0.03 0.02 0.02 0.02 0.03 0.03 0.04 0.04 0.02 0.02 0.02 0.02 0.01 0.01 0.03 0.03 0.03 0.05 0.06 0.06 0.06 0.06 0.06 0.06 0.07 0.06 0.05 0.05 0.05 0.04 0.03 0.04 0.04 0.04 0.05 0.05
0.02 0.02 0.01 0.02 0.02 0.03 0.03 0.03 0.04 0.04 0.03 0.01 0.01 0.02 0.01 0.01 0.02 0.02 0.03 0.04 0.05 0.04 0.04 0.04 0.05 0.04 0.04 0.03 0.03 0.03 0.03 0.03 0.03 0.03 0.04 0.05 0.05 0.05
0.01 0.01 0.01 0.01 0.02 0.02 0.03 0.04 0.04 0.05 0.03 0.02 0.02 0.02 0.02 0.01 0.01 0.02 0.02 0.02 0.02 0.02 0.01 0.02 0.02 0.03 0.03 0.02 0.02 0.02 0.02 0.02 0.02 0.03 0.04 0.05 0.06 0.05
0.01 0.02 0.02 0.02 0.02 0.02 0.02 0.03 0.04 0.04 0.03 0.03 0.03 0.03 0.03 0.02 0.02 0.02 0.02 0.02 0.01 0.01 0.01 0.00 0.00 0.00 0.01 0.01 0.01 0.01 0.01 0.01 0.01 0.01 0.02 0.04 0.04 0.04
0.02 0.02 0.01 0.01 0.01 0.01 0.02 0.02 0.03 0.04 0.03 0.03 0.03 0.02 0.03 0.02 0.02 0.01 0.01 0.01 0.01 0.01 0.01 0.00 0.00 0.00 0.00 0.00 0.00 0.00 0.00 0.00 0.01 0.02 0.03 0.04 0.07 0.06
0.02 0.02 0.02 0.02 0.01 0.02 0.01 0.02 0.04 0.04 0.03 0.03 0.02 0.02 0.02 0.02 0.02 0.02 0.01 0.01 0.01 0.01 0.00 0.00 0.00 0.00 0.00 0.00 0.00 0.00 0.00 0.00 0.00 0.01 0.03 0.07 0.10 0.12
0.02 0.03 0.03 0.03 0.03 0.02 0.01 0.02 0.03 0.03 0.03 0.02 0.02 0.02 0.02 0.02 0.02 0.01 0.01 0.01 0.01 0.01 0.00 0.00 0.00 0.00 0.00 0.00 0.00 0.00 0.00 0.00 0.01 0.01 0.01 0.02 0.04 0.06
0.01 0.01 0.02 0.03 0.03 0.03 0.03 0.03 0.02 0.02 0.03 0.02 0.03 0.02 0.03 0.02 0.02 0.02 0.02 0.02 0.01 0.01 0.01 0.01 0.00 0.00 0.00 0.00 0.00 0.00 0.01 0.01 0.01 0.01 0.01 0.01 0.01 0.02
0.01 0.01 0.01 0.02 0.02 0.02 0.02 0.03 0.03 0.03 0.03 0.03 0.02 0.03 0.03 0.03 0.03 0.03 0.02 0.02 0.02 0.02 0.02 0.01 0.01 0.00 0.00 0.00 0.00 0.00 0.00 0.01 0.01 0.01 0.01 0.01 0.01 0.01
0.01 0.02 0.02 0.02 0.02 0.03 0.03 0.03 0.03 0.02 0.03 0.03 0.03 0.03 0.03 0.04 0.04 0.04 0.04 0.04 0.03 0.03 0.02 0.02 0.01 0.01 0.01 0.00 0.00 0.00 0.00 0.01 0.00 0.01 0.01 0.01 0.01 0.01
0.01 0.02 0.02 0.02 0.03 0.03 0.03 0.03 0.02 0.03 0.03 0.04 0.05 0.05 0.06 0.06 0.05 0.04 0.04 0.04 0.04 0.05 0.05 0.05 0.03 0.02 0.02 0.01 0.00 0.00 0.00 0.00 0.01 0.01 0.01 0.01 0.01 0.01
0.01 0.02 0.02 0.03 0.04 0.03 0.03 0.03 0.03 0.04 0.05 0.07 0.07 0.07 0.05 0.05 0.05 0.04 0.04 0.04 0.05 0.05 0.06 0.08 0.07 0.05 0.03 0.01 0.00 0.00 0.00 0.00 0.01 0.01 0.01 0.01 0.01 0.01
0.02 0.03 0.04 0.06 0.06 0.05 0.05 0.06 0.08 0.08 0.08 0.08 0.07 0.07 0.07 0.06 0.06 0.06 0.06 0.06 0.05 0.05 0.06 0.08 0.08 0.06 0.04 0.03 0.01 0.01 0.01 0.00 0.01 0.01 0.01 0.01 0.01 0.01
0.03 0.04 0.05 0.07 0.06 0.06 0.07 0.08 0.08 0.08 0.08 0.07 0.06 0.06 0.05 0.05 0.06 0.06 0.06 0.06 0.05 0.05 0.05 0.07 0.07 0.05 0.04 0.03 0.03 0.02 0.02 0.01 0.01 0.01 0.01 0.02 0.01 0.01
0.02 0.03 0.04 0.05 0.06 0.06 0.08 0.08 0.06 0.04 0.04 0.04 0.04 0.04 0.03 0.03 0.04 0.04 0.05 0.05 0.06 0.06 0.06 0.06 0.05 0.04 0.04 0.04 0.04 0.02 0.02 0.02 0.02 0.01 0.01 0.02 0.01 0.02
0.02 0.03 0.03 0.04 0.05 0.06 0.07 0.06 0.04 0.03 0.03 0.03 0.03 0.03 0.03 0.03 0.03 0.04 0.05 0.05 0.05 0.05 0.06 0.05 0.05 0.05 0.04 0.03 0.02 0.02 0.01 0.01 0.02 0.02 0.02 0.03 0.03 0.02
0.02 0.03 0.05 0.06 0.07 0.07 0.07 0.06 0.06 0.04 0.04 0.03 0.03 0.04 0.04 0.04 0.04 0.04 0.05 0.05 0.05 0.06 0.06 0.05 0.04 0.03 0.02 0.02 0.01 0.01 0.01 0.01 0.01 0.01 0.02 0.02 0.02 0.02
0.01 0.01 0.02 0.03 0.05 0.06 0.05 0.05 0.05 0.04 0.03 0.03 0.03 0.03 0.03 0.04 0.04 0.04 0.04 0.04 0.05 0.05 0.06 0.05 0.04 0.02 0.02 0.02 0.01 0.01 0.01 0.01 0.01 0.01 0.02 0.03 0.02 0.02
0.01 0.01 0.02 0.04 0.04 0.04 0.04 0.03 0.02 0.02 0.02 0.02 0.02 0.03 0.03 0.04 0.04 0.04 0.04 0.04 0.04 0.04 0.04 0.04 0.05 0.04 0.03 0.03 0.03 0.02 0.02 0.02 0.02 0.02 0.03 0.03 0.03 0.03
0.01 0.02 0.03 0.03 0.03 0.03 0.02 0.02 0.01 0.01 0.02 0.03 0.03 0.03 0.03 0.03 0.03 0.03 0.03 0.03 0.03 0.04 0.04 0.04 0.05 0.05 0.05 0.05 0.05 0.04 0.03 0.03 0.04 0.04 0.03 0.03 0.03 0.04
0.01 0.02 0.03 0.03 0.03 0.02 0.01 0.00 0.01 0.01 0.02 0.02 0.03 0.02 0.02 0.02 0.02 0.03 0.03 0.03 0.04 0.04 0.05 0.06 0.06 0.06 0.05 0.05 0.04 0.03 0.02 0.03 0.04 0.04 0.04 0.03 0.03 0.03
0.02 0.02 0.03 0.03 0.02 0.02 0.01 0.01 0.02 0.02 0.02 0.03 0.03 0.03 0.03 0.03 0.04 0.04 0.05 0.05 0.05 0.05 0.05 0.05 0.06 0.07 0.06 0.04 0.03 0.02 0.02 0.02 0.03 0.04 0.03 0.03 0.02 0.02
0.02 0.02 0.03 0.03 0.02 0.01 0.01 0.01 0.02 0.02 0.02 0.03 0.03 0.04 0.05 0.05 0.05 0.05 0.06 0.06 0.06 0.06 0.06 0.06 0.06 0.06 0.05 0.05 0.04 0.03 0.03 0.03 0.03 0.03 0.03 0.03 0.02 0.02
MSLP
1016.80 1017.00 1017.21 1017.43 1017.61 1017.72 1017.75 1017.69 1017.57 1017.38 1017.17 1016.96 1016.77 1016.61 1016.48 1016.37 1016.26 1016.14 1015.99 1015.82 1015.61 1015.38 1015.14 1014.91 1014.70 1014.53 1014.40 1014.32 1014.29 1014.31 1014.37 1014.47 1014.60 1014.76 1014.93 1015.10 1015.24 1015.34
1016.36 1016.51 1016.69 1016.89 1017.06 1017.19 1017.26 1017.25 1017.19 1017.08 1016.94 1016.80 1016.66 1016.54 1016.43 1016.32 1016.20 1016.07 1015.90 1015.71 1015.49 1015.27 1015.04 1014.84 1014.66 1014.52 1014.43 1014.38 1014.36 1014.38 1014.44 1014.52 1014.62 1014.75 1014.89 1015.03 1015.15 1015.25
1015.87 1016.00 1016.16 1016.34 1016.52 1016.66 1016.77 1016.82 1016.82 1016.78 1016.71 1016.63 1016.54 1016.45 1016.36 1016.26 1016.14 1015.99 1015.82 1015.62 1015.41 1015.20 1015.00 1014.83 1014.70 1014.60 1014.55 1014.53 1014.53 1014.56 1014.60 1014.67 1014.75 1014.85 1014.96 1015.08 1015.20 1015.32
1015.37 1015.48 1015.63 1015.81 1016.00 1016.17 1016.31 1016.41 1016.46 1016.48 1016.47 1016.44 1016.39 1016.33 1016.26 1016.16 1016.04 1015.89 1015.72 1015.53 1015.33 1015.14 1014.98 1014.85 1014.76 1014.70 1014.68 1014.69 1014.71 1014.75 1014.79 1014.84 1014.91 1014.99 1015.10 1015.22 1015.36 1015.50
1014.89 1014.99 1015.14 1015.32 1015.51 1015.70 1015.87 1016.00 1016.10 1016.16 1016.19 1016.20 1016.18 1016.15 1016.09 1016.01 1015.89 1015.75 1015.59 1015.41 1015.23 1015.07 1014.94 1014.84 1014.79 1014.76 1014.77 1014.80 1014.84 1014.88 1014.93 1014.98 1015.05 1015.14 1015.26 1015.41 1015.58 1015.77
1014.44 1014.54 1014.69 1014.87 1015.07 1015.26 1015.44 1015.59 1015.71 1015.80 1015.86 1015.89 1015.90 1015.89 1015.86 1015.79 1015.69 1015.57 1015.43 1015.27 1015.12 1014.98 1014.87 1014.80 1014.76 1014.76 1014.79 1014.83 1014.88 1014.94 1015.00 1015.07 1015.16 1015.27 1015.42 1015.61 1015.83 1016.08
1014.03 1014.13 1014.28 1014.45 1014.65 1014.84 1015.01 1015.17 1015.29 1015.39 1015.46 1015.52 1015.55 1015.56 1015.55 1015.51 1015.44 1015.35 1015.23 1015.10 1014.97 1014.86 1014.77 1014.71 1014.69 1014.70 1014.73 1014.78 1014.84 1014.91 1014.99 1015.08 1015.21 1015.36 1015.56 1015.81 1016.09 1016.40
1013.65 1013.76 1013.91 1014.08 1014.26 1014.44 1014.60 1014.74 1014.85 1014.94 1015.02 1015.08 1015.13 1015.17 1015.19 1015.19 1015.16 1015.10 1015.02 1014.93 1014.82 1014.73 1014.65 1014.60 1014.57 1014.58 1014.61 1014.66 1014.73 1014.81 1014.91 1015.04 1015.21 1015.42 1015.67 1015.98 1016.32 1016.70
1013.29 1013.42 1013.57 1013.74 1013.91 1014.07 1014.21 1014.32 1014.42 1014.50 1014.57 1014.64 1014.70 1014.76 1014.81 1014.85 1014.86 1014.85 1014.81 1014.75 1014.67 1014.59 1014.52 1014.47 1014.44 1014.44 1014.46 1014.50 1014.57 1014.67 1014.80 1014.97 1015.17 1015.43 1015.74 1016.10 1016.50 1016.92
1012.96 1013.12 1013.29 1013.46 1013.62 1013.77 1013.88 1013.97 1014.04 1014.10 1014.16 1014.23 1014.30 1014.38 1014.46 1014.53 1014.58 1014.61 1014.61 1014.58 1014.52 1014.46 1014.40 1014.34 1014.30 1014.29 1014.30 1014.34 1014.42 1014.53 1014.68 1014.87 1015.11 1015.41 1015.76 1016.16 1016.59 1017.05
1012.67 1012.87 1013.07 1013.26 1013.43 1013.56 1013.66 1013.72 1013.77 1013.81 1013.85 1013.90 1013.97 1014.06 1014.15 1014.25 1014.33 1014.39 1014.42 1014.41 1014.38 1014.33 1014.28 1014.22 1014.18 1014.16 1014.17 1014.20 1014.28 1014.40 1014.56 1014.78 1015.04 1015.36 1015.73 1016.14 1016.60 1017.08
1012.43 1012.69 1012.93 1013.15 1013.34 1013.47 1013.56 1013.60 1013.62 1013.63 1013.65 1013.68 1013.74 1013.82 1013.91 1014.02 1014.11 1014.19 1014.23 1014.25 1014.24 1014.20 1014.16 1014.11 1014.07 1014.06 1014.07 1014.12 1014.20 1014.33 1014.50 1014.72 1014.99 1015.31 1015.68 1016.09 1016.54 1017.01
1012.24 1012.57 1012.87 1013.13 1013.34 1013.48 1013.56 1013.59 1013.59 1013.57 1013.56 1013.56 1013.60 1013.65 1013.73 1013.83 1013.92 1013.99 1014.04 1014.07 1014.08 1014.06 1014.03 1014.00 1013.99 1013.99 1014.03 1014.09 1014.19 1014.33 1014.50 1014.72 1014.99 1015.29 1015.65 1016.04 1016.46 1016.91
1012.10 1012.49 1012.85 1013.16 1013.39 1013.55 1013.63 1013.66 1013.64 1013.60 1013.55 1013.52 1013.52 1013.55 1013.60 1013.66 1013.73 1013.80 1013.85 1013.88 1013.90 1013.90 1013.91 1013.91 1013.94 1013.98 1014.05 1014.14 1014.27 1014.43 1014.61 1014.83 1015.08 1015.37 1015.69 1016.04 1016.43 1016.84
1011.96 1012.42 1012.84 1013.18 1013.44 1013.61 1013.71 1013.73 1013.70 1013.64 1013.57 1013.52 1013.48 1013.48 1013.49 1013.52 1013.56 1013.61 1013.65 1013.69 1013.72 1013.75 1013.79 1013.85 1013.92 1014.02 1014.14 1014.29 1014.45 1014.64 1014.85 1015.07 1015.31 1015.57 1015.85 1016.16 1016.50 1016.86
1011.80 1012.31 1012.76 1013.13 1013.41 1013.60 1013.71 1013.74 1013.71 1013.65 1013.58 1013.51 1013.45 1013.42 1013.40 1013.40 1013.42 1013.44 1013.47 1013.51 1013.56 1013.63 1013.71 1013.82 1013.96 1014.13 1014.32 1014.52 1014.74 1014.97 1015.20 1015.44 1015.67 1015.92 1016.17 1016.43 1016.72 1017.03
1011.56 1012.09 1012.56 1012.95 1013.25 1013.46 1013.58 1013.63 1013.63 1013.59 1013.53 1013.47 1013.41 1013.36 1013.33 1013.32 1013.31 1013.32 1013.35 1013.40 1013.46 1013.56 1013.70 1013.87 1014.07 1014.31 1014.57 1014.84 1015.12 1015.40 1015.67 1015.92 1016.16 1016.39 1016.62 1016.85 1017.09 1017.35
1011.22 1011.74 1012.21 1012.60 1012.91 1013.14 1013.30 1013.39 1013.44 1013.44 1013.42 1013.40 1013.37 1013.34 1013.31 1013.30 1013.29 1013.30 1013.32 1013.38 1013.46 1013.59 1013.77 1013.99 1014.25 1014.55 1014.87 1015.21 1015.55 1015.87 1016.17 1016.45 1016.70 1016.93 1017.15 1017.35 1017.56 1017.77
1010.76 1011.26 1011.71 1012.10 1012.42 1012.68 1012.88 1013.04 1013.14 1013.22 1013.28 1013.32 1013.34 1013.35 1013.36 1013.36 1013.36 1013.38 1013.41 1013.48 1013.58 1013.73 1013.93 1014.19 1014.49 1014.83 1015.20 1015.58 1015.96 1016.32 1016.65 1016.95 1017.22 1017.45 1017.66 1017.85 1018.04 1018.22
1010.21 1010.68 1011.11 1011.49 1011.83 1012.12 1012.38 1012.60 1012.80 1012.97 1013.12 1013.24 1013.34 1013.42 1013.48 1013.52 1013.55 1013.58 1013.62 1013.69 1013.80 1013.96 1014.17 1014.44 1014.76 1015.12 1015.51 1015.91 1016.30 1016.68 1017.02 1017.33 1017.61 1017.85 1018.06 1018.25 1018.43 1018.60
1009.64 1010.07 1010.48 1010.85 1011.20 1011.53 1011.85 1012.15 1012.44 1012.71 1012.96 1013.19 1013.38 1013.53 1013.65 1013.74 1013.80 1013.85 1013.91 1013.99 1014.10 1014.25 1014.46 1014.72 1015.03 1015.38 1015.76 1016.14 1016.52 1016.89 1017.23 1017.54 1017.81 1018.05 1018.27 1018.47 1018.65 1018.83
1009.09 1009.49 1009.87 1010.24 1010.61 1010.98 1011.36 1011.73 1012.11 1012.48 1012.83 1013.14 1013.42 1013.65 1013.84 1013.97 1014.08 1014.16 1014.23 1014.31 1014.41 1014.56 1014.75 1014.98 1015.26 1015.57 1015.90 1016.25 1016.59 1016.92 1017.24 1017.52 1017.79 1018.03 1018.25 1018.46 1018.66 1018.85
1008.63 1009.00 1009.37 1009.73 1010.11 1010.51 1010.93 1011.37 1011.82 1012.26 1012.69 1013.09 1013.44 1013.74 1013.98 1014.16 1014.30 1014.41 1014.49 1014.58 1014.68 1014.81 1014.98 1015.18 1015.41 1015.67 1015.95 1016.23 1016.52 1016.80 1017.07 1017.32 1017.56 1017.79 1018.02 1018.24 1018.45 1018.67
Thickness
5741 5739 5737 5736 5734 5732 5729 5725 5719 5712 5711 5712 5711 5711 5708 5706 5704 5701 5698 5696 5693 5690 5688 5685 5682 5679 5677 5675 5673 5671 5670 5668 5667 5665 5663 5662 5660 5659
5740 5738 5736 5735 5733 5731 5728 5725 5722 5717 5712 5712 5710 5708 5705 5703 5700 5697 5694 5691 5688 5686 5683 5680 5677 5674 5672 5669 5667 5665 5664 5663 5661 5659 5657 5655 5654 5652
5738 5737 5735 5734 5732 5730 5727 5724 5721 5717 5712 5710 5707 5705 5701 5699 5696 5693 5690 5687 5684 5681 5678 5675 5672 5669 5666 5664 5661 5659 5657 5656 5654 5652 5650 5648 5646 5645
5737 5735 5734 5733 5730 5728 5725 5722 5720 5716 5712 5707 5704 5701 5697 5695 5692 5689 5685 5683 5679 5677 5673 5670 5667 5664 5661 5658 5655 5653 5651 5649 5647 5645 5643 5641 5639 5638
5737 5734 5733 5731 5728 5726 5723 5720 5718 5715 5711 5707 5702 5698 5693 5690 5687 5684 5681 5678 5675 5672 5669 5666 5662 5659 5656 5652 5649 5647 5644 5642 5640 5638 5636 5634 5632 5630
5735 5733 5731 5729 5727 5725 5722 5719 5716 5711 5707 5703 5699 5694 5690 5686 5683 5679 5676 5673 5670 5667 5664 5661 5657 5654 5651 5648 5644 5641 5638 5636 5633 5631 5629 5626 5624 5622
5732 5730 5729 5728 5727 5724 5721 5717 5713 5709 5704 5700 5696 5692 5687 5683 5680 5677 5673 5669 5665 5662 5659 5656 5653 5649 5645 5642 5639 5636 5633 5630 5627 5625 5622 5620 5617 5615
5729 5728 5727 5726 5724 5722 5719 5716 5712 5707 5703 5698 5694 5690 5687 5684 5679 5675 5670 5665 5662 5659 5654 5651 5648 5644 5641 5637 5634 5631 5628 5625 5622 5619 5616 5613 5610 5608
5726 5724 5724 5723 5721 5719 5716 5712 5709 5706 5703 5699 5694 5690 5686 5683 5678 5671 5667 5664 5660 5655 5650 5647 5642 5640 5637 5633 5630 5627 5623 5620 5617 5613 5610 5607 5604 5602
5722 5721 5719 5718 5717 5714 5711 5708 5704 5702 5699 5696 5692 5689 5686 5681 5676 5671 5666 5659 5654 5649 5645 5642 5638 5635 5632 5628 5625 5622 5618 5615 5611 5608 5605 5602 5598 5596
5719 5717 5715 5713 5712 5709 5705 5702 5699 5696 5694 5690 5687 5683 5680 5675 5670 5665 5659 5654 5650 5646 5640 5637 5634 5629 5626 5623 5620 5616 5613 5609 5606 5602 5599 5596 5593 5589
5714 5712 5710 5708 5705 5702 5699 5696 5693 5690 5687 5683 5680 5677 5673 5669 5664 5661 5657 5651 5647 5642 5637 5632 5629 5624 5621 5618 5614 5611 5607 5604 5600 5597 5593 5590 5587 5583
5708 5706 5704 5701 5698 5695 5692 5690 5687 5684 5680 5677 5674 5670 5667 5663 5659 5655 5652 5648 5643 5640 5635 5628 5624 5619 5616 5613 5609 5605 5601 5598 5594 5591 5588 5584 5581 5577
5702 5701 5698 5695 5691 5687 5684 5682 5679 5675 5672 5669 5666 5663 5660 5657 5654 5650 5646 5642 5639 5635 5630 5624 5620 5615 5611 5607 5603 5599 5595 5591 5588 5585 5582 5578 5575 5572
5696 5694 5691 5688 5684 5681 5678 5675 5671 5667 5665 5661 5659 5657 5654 5651 5647 5644 5640 5635 5631 5627 5623 5618 5615 5611 5606 5603 5599 5594 5590 5586 5582 5579 5576 5573 5570 5566
5689 5686 5684 5681 5677 5674 5671 5668 5664 5661 5658 5656 5654 5651 5648 5644 5641 5637 5633 5629 5624 5620 5615 5611 5607 5604 5601 5597 5593 5590 5586 5582 5578 5574 5571 5568 5564 5561
5681 5678 5676 5673 5670 5667 5664 5661 5658 5655 5651 5649 5646 5644 5641 5638 5634 5630 5626 5622 5618 5615 5610 5604 5600 5596 5593 5590 5587 5585 5581 5577 5574 5570 5565 5563 5560 5557
5673 5671 5669 5666 5663 5661 5658 5655 5653 5650 5646 5643 5640 5637 5634 5631 5627 5623 5619 5615 5612 5609 5604 5599 5593 5589 5586 5583 5581 5579 5576 5573 5569 5564 5561 5558 5557 5553
5666 5665 5662 5660 5657 5655 5652 5650 5647 5644 5640 5637 5634 5631 5627 5624 5619 5616 5612 5609 5605 5602 5598 5593 5588 5585 5583 5581 5579 5573 5571 5568 5564 5560 5556 5554 5553 5550
5660 5658 5656 5653 5651 5649 5646 5643 5640 5637 5633 5630 5627 5624 5621 5617 5613 5609 5606 5603 5599 5596 5592 5588 5584 5581 5579 5577 5574 5569 5565 5563 5560 5556 5553 5549 5546 5542
5654 5652 5649 5647 5644 5642 5639 5637 5634 5631 5627 5624 5621 5618 5614 5611 5607 5604 5600 5595 5591 5589 5587 5584 5580 5576 5572 5568 5565 5564 5561 5558 5556 5552 5548 5544 5541 5538
5648 5646 5643 5640 5638 5635 5632 5630 5627 5624 5621 5618 5615 5612 5608 5605 5601 5597 5594 5590 5587 5584 5581 5578 5573 5569 5565 5563 5562 5560 5556 5552 5548 5545 5543 5541 5538 5536
5642 5639 5636 5634 5632 5629 5626 5623 5621 5618 5615 5612 5609 5606 5602 5598 5595 5591 5588 5585 5582 5579 5575 5571 5567 5563 5561 5558 5556 5554 5551 5548 5544 5540 5537 5535 5533 5530